SIRIUS FM-5             
1 35493U 09034A   19265.84777139 -.00000209  00000-0  00000-0 0  9991
2 35493   0.0233 267.2007 0000472 127.7119 185.5710  1.00272673 22042
BREEZE-M R/B            
1 35494U 09034B   19265.49568722 -.00000242  00000-0  00000+0 0  9995
2 35494  23.6953 311.5021 6076765   3.5383 155.4660  2.04371969 76356
BREEZE-M DEB [TANK]     
1 35495U 09034C   19265.16566732  .00000150  00000-0  69720-4 0  9995
2 35495  49.6157 358.4853 5015504  96.8801 320.2675  5.56847168204313